Home   Weather   Leesburg   Past weeks
Flag for USA

Past Weather in Leesburg, Florida, USA — Yesterday and Last 2 Weeks

Now
72 °F

Clear.


Feels Like: 70 °F
Forecast: 86 / 72 °F
Wind: 7 mph from North

Location: Leesburg Municipal Airport

Current Time: Sep 20, 2019 at 4:17:42 am

Latest Report: Sep 20, 2019 at 3:53 am


Visibility: 10 mi

Pressure: 30.05 "Hg

Humidity: 87%

Dew Point: 68 °F

Location of LeesburgLocation

Past Weather in Leesburg — Graph

°F

Leesburg Temperature Yesterday

Maximum temperature yesterday: 87 °F (at 11:53 am)
Minimum temperature yesterday: 73 °F (at 4:53 am)
Average temperature yesterday: 79 °F

High & Low Weather Summary for the Past Weeks

 TemperatureHumidityPressure
High97 °F (Sep 9, 4:53 pm)91% (Sep 11, 6:53 am)30.23 "Hg (Sep 11, 6:53 am)
Low72 °F (Sep 20, 1:53 am)34% (Sep 17, 3:53 pm)29.84 "Hg (Sep 5, 2:53 am)
Average84 °F70%30.01 "Hg
* Reported Sep 5 2:53 am — Sep 20 2:53 am, Leesburg. Weather by CustomWeather, © 2019

Note: Actual official high and low records may vary slightly from our data, if they occured in-between our weather recording intervals... More about our weather records

Advertising

Leesburg Weather History for the Previous 24 Hours

Scroll right to see more
 ConditionsComfort  
Time TempWeatherWind HumidityBarometerVisibility
2:53 am
Fri, Sep 20
72 °FPassing clouds.5 mph87%30.06 "Hg10 mi
1:53 am72 °FClear.6 mph87%30.07 "Hg10 mi
12:53 am73 °FClear.6 mph88%30.07 "Hg10 mi
11:53 pm
Thu, Sep 19
73 °FClear.7 mph88%30.09 "Hg10 mi
10:53 pm74 °FPassing clouds.6 mph85%30.09 "Hg10 mi
9:53 pm75 °FPassing clouds.7 mph79%30.08 "Hg10 mi
8:53 pm77 °FMostly cloudy.7 mph66%30.06 "Hg10 mi
7:53 pm77 °FClear.8 mph69%30.04 "Hg10 mi
6:53 pm79 °FScattered clouds.12 mph65%30.03 "Hg10 mi
5:53 pm82 °FBroken clouds.16 mph65%30.02 "Hg10 mi
4:53 pm87 °FPassing clouds.15 mph46%30.01 "Hg10 mi
3:53 pm86 °FScattered clouds.14 mph51%30.01 "Hg10 mi
2:53 pm80 °FMore clouds than sun.6 mph67%30.04 "Hg10 mi
1:53 pm86 °FBroken clouds.14 mph49%30.04 "Hg10 mi
12:53 pm84 °FPartly sunny.10 mph55%30.06 "Hg10 mi
11:53 am87 °FPassing clouds.9 mph48%30.06 "Hg10 mi
10:53 am85 °FPassing clouds.15 mph51%30.06 "Hg10 mi
9:53 am83 °FSunny.12 mph57%30.06 "Hg10 mi
8:53 am78 °FPartly sunny.6 mph71%30.05 "Hg10 mi
7:53 am74 °FPartly sunny.7 mph79%30.04 "Hg10 mi
6:53 am74 °FClear.5 mph79%30.02 "Hg10 mi
5:53 am74 °FClear.3 mph82%30.01 "Hg10 mi
4:53 am73 °FClear.6 mph81%30.00 "Hg10 mi
Weather by CustomWeather, © 2019

See weather overview